Weather in Pushkino

Russia / Lipetsk Oblast     52°19′52″N   40°21′55″E
temp.,
°C
wind,
m/s
gust,
m/s
humid.,
%
clouds,
%
prec.,
mm/h
press.,
hPa
HPBL,
m
12 may, wed
wed1200:00+6e368991 0.0 1026101
03:00+6ene368781 0.0 1025103
06:00+7ene3883100 0.0 1025211
09:00+12ene3468100 0.0 1023633
12:00+13ne3359100 0.6 10211037
15:00+15ene335433 0.6 10201361
18:00+15e46635 0.0 1019693
21:00+10e4886100 0.0 1020140
13 may, thu
thu1300:00+11e61387100 0.0 1019355
03:00+11ese41188100 0.0 1019294
06:00+11e4988100 0.0 1018226
09:00+16ese3571100 0.0 1016474
12:00+20se34585 0.0 10161119
15:00+21s46502 0.0 10151639
18:00+20sse466428 0.1 1015252
21:00+13wnw11875 0.1 101724
14 may, fri
fri1400:00+12ne339233 0.0 101743
03:00+13ese3485100 0.0 101755
06:00+14ese388996 0.0 1017184
09:00+20se57716 0.0 1016548
12:00+24sse685679 0.0 10151346
15:00+25sse79527 0.0 10151560
18:00+23se5107055 0.0 1014404
21:00+19se411877 0.0 1013201
15 may, sat
sat1500:00+17sse498731 0.0 1013151
03:00+16se379118 0.0 1012103
06:00+16se368846 0.0 1012164
09:00+20s6874100 0.4 1012547
12:00+20e358029 0.4 1011176
15:00+24s576144 1.1 10121401
18:00+22ssw47733 2.1 1012476
21:00+17wsw45840 2.8 101368
16 may, sun
sun1600:00+15wsw33873 0.0 101331
03:00+13wsw228927 0.0 101413
06:00+14wnw238893 0.0 1015111
09:00+18nnw2272100 0.0 1016476
12:00+22n21565 0.0 1016963
15:00+24ne225129 0.0 10151381
18:00+23nne236248 0.0 1014184
21:00+17nne4781100 0.4 101599